This is the latest recevied weather packets stored in our database for station/object KC3ELT-10. If no packets are shown the sender has not sent any weather packets the latest 10 day(s).
| Time | Temp. | Humidity | Pressure | Rain* | Wind** | Luminosity | Snow |
|---|---|---|---|---|---|---|---|
| 1777832279 | 11.11° C | 37% | 1007 hPa | 0 mm | 4.92 m/s, 271° | - | - |
| 1777831978 | 11.11° C | 36% | 1007 hPa | 0 mm | 5.81 m/s, 294° | - | - |
| 1777831679 | 11.11° C | 37% | 1007 hPa | 0 mm | 4.47 m/s, 316° | - | - |
| 1777831379 | 11.11° C | 37% | 1007 hPa | 0 mm | 2.24 m/s, 348° | - | - |
| 1777831079 | 11.11° C | 39% | 1007.1 hPa | 0 mm | 4.47 m/s, 290° | - | - |
| 1777830779 | 11.11° C | 36% | 1007.1 hPa | 0 mm | 3.13 m/s, 347° | - | - |
| 1777830479 | 11.11° C | 40% | 1007.1 hPa | 0 mm | 5.81 m/s, 275° | - | - |
| 1777830179 | 10.56° C | 38% | 1007.1 hPa | 0 mm | 4.02 m/s, 313° | - | - |
| 1777829879 | 10.56° C | 39% | 1007.1 hPa | 0 mm | 1.34 m/s, 295° | - | - |
| 1777829579 | 10.56° C | 39% | 1007.1 hPa | 0 mm | 5.36 m/s, 272° | - | - |
| 1777829279 | 10.56° C | 40% | 1007.3 hPa | 0 mm | 0.45 m/s, 305° | - | - |
| 1777828979 | 10.56° C | 39% | 1007.3 hPa | 0 mm | 5.81 m/s, 312° | - | - |
| 1777828678 | 10.56° C | 42% | 1007.3 hPa | 0 mm | 4.47 m/s, 214° | - | - |
| 1777828379 | 10° C | 41% | 1007.4 hPa | 0 mm | 0.89 m/s, 236° | - | - |
| 1777828079 | 10° C | 39% | 1007.4 hPa | 0 mm | 4.02 m/s, 304° | - | - |
| 1777827779 | 10° C | 43% | 1007.4 hPa | 0 mm | 4.47 m/s, 333° | - | - |
| 1777827479 | 9.44° C | 41% | 1007.5 hPa | 0 mm | 1.79 m/s, 337° | - | - |
| 1777827179 | 10° C | 42% | 1007.5 hPa | 0 mm | 2.24 m/s, 312° | - | - |
| 1777826878 | 10° C | 44% | 1007.5 hPa | 0 mm | 2.24 m/s, 352° | - | - |
| 1777826579 | 9.44° C | 46% | 1007.8 hPa | 0 mm | 2.24 m/s, 0° | - | - |
| 1777826279 | 8.89° C | 46% | 1007.8 hPa | 0 mm | 4.92 m/s, 2° | - | - |
| 1777825979 | 8.89° C | 44% | 1007.8 hPa | 0 mm | 3.13 m/s, 296° | - | - |
| 1777825679 | 9.44° C | 45% | 1008.1 hPa | 0 mm | 3.13 m/s, 0° | - | - |
| 1777825379 | 8.89° C | 48% | 1008.1 hPa | 0 mm | 1.34 m/s, 359° | - | - |
| 1777825079 | 8.33° C | 46% | 1008.1 hPa | 0 mm | 3.13 m/s, 341° | - | - |
* Rain latest hour (hover to see other rain measurements)
** Current wind speed in m/s (hover to see current wind gust speed)